Location: Amon Carter Post Office
(32.8281°N, 97.0484°W)
Time: 06:12:04
(UTC+00:00)

CZ-2C R/B - Pass Details

Date: 04 July 2022
Orbit: 783 x 871 km, 98.2° (Epoch: 11 August)

Event Time Altitude Azimuth Distance (km) Brightness Sun altitude
Rises 09:43:10 0° 124° (ESE) 3,411 6.0 -18.1°
Reaches altitude 10° 09:46:20 10° 105° (ESE) 2,492 5.6 -17.7°
Maximum altitude 09:49:48 17° 65° (ENE) 2,041 5.7 -17.1°
Drops below altitude 10° 09:53:17 10° 27° (NNE) 2,518 6.3 -16.6°
Sets 09:56:29 0° 8° (N) 3,463 6.7 -16.1°
